Starlink 31772

operational
NORAD ID: 59430 Int'l Des: 2024-065 Owner: SPXS Country: US Constellation: starlink
LEOCIRCULAR

About Starlink 31772

Description loading...

Live Position

Loading 3D Globe...

Upcoming Passes

Altitude History

Altitude vs Time

uPlot chart will show altitude changes over time

Two-Line Element Set

1 59430U 24065K 25305.87663971 .00000519 00000-0 29654-4 0 9995
2 59430 53.1595 155.1400 0001188 78.8333 281.2802 15.30195631 89360
Epoch: Nov 1, 2025 • Age: 26 hours

Current Status

Altitude 476.6 km
Velocity 7.63 km/s
Sub-Earth Point 30.73°N, 79.54°W
Launch Date Apr 7, 2024
Age 1.5 years
Type internet

Technical Details

Classification Payload
Mass 730.00 kg
Dry Mass 700.00 kg
Total Mass 730.00 kg
Length 0.30 m
Diameter 4.10 m
Span 29.00 m
Shape Box + pan
Manufacturer SPXS
Bus Type Starlink V2M
Phase Status In Orbit
Owner/State SPXS/US

Large Constellations

Loading constellations...